[[{"header":{"parameterUnit":"m.s-1","parameterCategory":1,"la1":30.2991,"la2":30.254,"lo1":-89.0895,"lo2":-89.0444,"dy":0.0017,"dx":0.0017,"nx":28,"ny":28,"refTime":"2024-05-23T03:00:00:Z","depth":0,"parameterNumber":2,"parameterNumberName":"U-component_of_WINDS"},"data":[0,0,0,0,0,0,0,0,0,0,0,0,0,0,0,0,0,0,0,0,0,0,0,0,0,0,0,0,0,0,0,0,0,0,0,0,0,0,0,0,0,0,0,0,0,0,0,0,0,0,0,0,0,0,0,0,0,0,-1.7912,-1.7913,0,-1.7945,-1.7946,-1.7946,-1.7947,-1.7946,-1.7946,-1.7946,-1.798,-1.7981,-1.7982,0,0,0,0,0,0,0,0,0,0,0,0,0,-1.7852,-1.7853,-1.7912,-1.7913,-1.7913,-1.7945,-1.7946,-1.7946,-1.7947,-1.7946,-1.7946,-1.7945,-1.7979,-1.7981,-1.7982,0,0,0,0,0,0,0,0,0,0,0,0,0,-1.7881,-1.7853,-1.7912,-1.7917,-1.7918,-1.7945,-1.7946,-1.7946,-1.7947,-1.7946,-1.7946,-1.7945,-1.7979,-1.7981,-1.7983,-1.8006,0,0,-1.7988,-1.7989,0,0,0,0,0,0,0,0,-1.7879,-1.7883,-1.7916,-1.7917,-1.7918,-1.7941,-1.7937,-1.7966,-1.7947,-1.7936,-1.7946,-1.7945,-1.7967,-1.797,-1.7978,-1.8008,-1.801,-1.7989,-1.799,-1.7991,-1.7991,0,0,0,0,0,0,0,-1.7877,-1.7881,-1.7925,-1.7917,-1.7918,-1.7919,-1.7922,-1.7942,-1.7955,-1.7937,-1.7937,-1.7941,-1.7968,-1.7976,-1.7979,-1.801,-1.7989,-1.799,-1.7991,-1.7992,-1.8062,-1.8063,0,0,0,0,0,0,-1.7874,-1.788,-1.7924,-1.7926,-1.7897,-1.792,-1.7924,-1.7934,-1.7955,-1.7957,-1.7941,-1.7941,-1.7973,-1.7976,-1.798,-1.8009,-1.7991,-1.7992,-1.7993,-1.8062,-1.8062,-1.8063,0,0,0,0,0,0,-1.7872,-1.7878,-1.7923,-1.7903,-1.7909,-1.7922,-1.7934,-1.7935,-1.7943,-1.7958,-1.796,-1.7947,-1.7973,-1.7977,-1.8,-1.801,-1.7993,-1.7995,-1.8061,-1.8062,-1.8063,-1.8068,0,0,0,0,0,0,-1.7871,-1.7877,-1.7886,-1.7903,-1.791,-1.7942,-1.7934,-1.7936,-1.7947,-1.7946,-1.7964,-1.7966,-1.7972,-1.7997,-1.8002,-1.8013,-1.7996,-1.806,-1.8061,-1.8062,-1.8067,-1.8069,-1.8071,0,0,0,0,0,-1.7868,-1.7886,-1.7886,-1.7892,-1.7921,-1.7943,-1.7947,-1.7953,-1.7948,-1.7957,-1.7966,-1.7966,-1.8009,-1.7999,-1.8005,-1.8016,-1.8059,-1.8061,-1.8062,-1.8066,-1.8068,-1.8071,0,0,0,0,0,0,-1.787,-1.7888,-1.7889,-1.7913,-1.7926,-1.7943,-1.7954,-1.7956,-1.7971,-1.797,-1.7978,-1.7982,-1.8004,-1.8013,-1.8002,-1.8041,-1.8033,-1.8036,-1.8034,-1.8037,-1.8039,-1.8035,-1.7998,0,0,0,0,0,-1.7873,-1.7888,-1.7904,-1.7923,-1.793,-1.7941,-1.7951,-1.7955,-1.7969,-1.7975,-1.7986,-1.8,-1.8017,-1.8027,-1.8043,-1.8068,-1.8072,-1.8079,-1.8081,-1.8083,-1.8085,-1.8098,-1.8102,-1.8068,-1.8068,-1.8068,0,0,-1.7879,-1.7891,-1.7901,-1.7924,-1.7935,-1.7951,-1.7946,-1.7963,-1.7975,-1.7977,-1.7999,-1.8008,-1.8025,-1.8049,-1.806,-1.8056,-1.8095,-1.8085,-1.8086,-1.8087,-1.81,-1.8104,-1.8106,-1.807,-1.8069,-1.8069,0,0,-1.7899,-1.791,-1.7927,-1.7938,-1.7955,-1.7962,-1.7966,-1.7983,-1.7989,-1.8012,-1.8013,-1.8029,-1.8057,-1.8069,-1.8078,-1.8104,-1.8104,-1.8109,-1.8119,-1.8132,-1.8135,-1.8137,-1.8146,-1.8149,-1.8111,-1.8111,-1.8111,0,-1.7904,-1.7929,-1.7936,-1.7953,-1.7963,-1.7966,-1.7984,-1.7995,-1.8016,-1.8023,-1.8019,-1.8056,-1.8067,-1.8094,-1.81,-1.8108,-1.8113,-1.8106,-1.8134,-1.8136,-1.8139,-1.8147,-1.815,-1.8111,-1.8111,-1.8111,-1.8111,0,-1.7935,-1.7952,-1.7964,-1.7984,-1.7996,-1.8013,-1.8024,-1.8035,-1.8038,-1.8046,-1.807,-1.8083,-1.8102,-1.8109,-1.8113,-1.8137,-1.8134,-1.8132,-1.8125,-1.8142,-1.815,-1.8153,-1.8112,-1.8112,-1.8112,-1.8112,0,0,-1.7955,-1.7979,-1.7984,-1.7993,-1.8012,-1.8025,-1.8044,-1.8062,-1.8071,-1.8087,-1.8102,-1.8127,-1.8125,-1.8136,-1.8141,-1.8153,-1.8172,-1.8149,-1.815,-1.8152,-1.8199,-1.82,-1.8203,-1.8173,-1.8173,-1.8174,-1.8197,0,-1.7976,-1.8008,-1.8015,-1.8042,-1.8058,-1.8062,-1.8077,-1.8091,-1.8099,-1.8114,-1.8124,-1.8141,-1.8138,-1.8144,-1.8157,-1.8167,-1.8181,-1.8166,-1.8187,-1.8187,-1.8181,-1.8207,-1.8208,-1.8229,-1.8201,-1.8201,-1.8201,0,-1.8005,-1.802,-1.8049,-1.8066,-1.8073,-1.8087,-1.8105,-1.8119,-1.8135,-1.814,-1.8153,-1.8157,-1.8176,-1.8169,-1.8196,-1.8185,-1.8195,-1.8201,-1.8202,-1.8204,-1.8195,-1.8208,-1.8236,-1.8239,-1.8206,-1.8206,-1.8206,0,-1.8016,-1.8044,-1.8064,-1.8072,-1.8093,-1.8103,-1.8112,-1.8128,-1.8138,-1.8154,-1.8162,-1.818,-1.819,-1.8204,-1.8213,-1.8207,-1.8239,-1.8232,-1.8244,-1.8244,-1.8249,-1.8249,-1.8278,-1.8257,-1.8257,-1.8257,-1.8257,0,-1.8038,-1.8055,-1.807,-1.8082,-1.8102,-1.8111,-1.813,-1.814,-1.8153,-1.8168,-1.8173,-1.8187,-1.8199,-1.8214,-1.8222,-1.8243,-1.8248,-1.8252,-1.8254,-1.8251,-1.8251,-1.8257,-1.8255,-1.8258,-1.8258,-1.8258,-1.8257,0,-1.8053,-1.8064,-1.8086,-1.8104,-1.8109,-1.8123,-1.8139,-1.8151,-1.816,-1.8179,-1.8184,-1.8198,-1.8217,-1.8228,-1.8252,-1.8257,-1.828,-1.8281,-1.8274,-1.8275,-1.8285,-1.8284,-1.8319,-1.8324,-1.83,-1.83,-1.8301,0,-1.8066,-1.808,-1.8099,-1.8109,-1.8119,-1.8135,-1.8146,-1.8156,-1.8167,-1.8187,-1.8197,-1.8216,-1.8232,-1.8262,-1.8274,-1.8293,-1.8294,-1.8305,-1.8297,-1.8294,-1.8293,-1.8292,-1.8293,-1.8306,-1.8306,-1.8307,-1.8307,0,-1.8089,-1.8093,-1.8109,-1.8126,-1.8139,-1.8154,-1.8168,-1.8176,-1.8188,-1.8201,-1.822,-1.8233,-1.8257,-1.8276,-1.8295,-1.8305,-1.8308,-1.831,-1.8313,-1.831,-1.8305,-1.8307,-1.8277,-1.8308,-1.8308,-1.8308,-1.8308,-1.8308,-1.8103,-1.8115,-1.813,-1.8147,-1.8159,-1.8173,-1.8185,-1.8196,-1.8212,-1.8232,-1.8237,-1.8257,-1.8274,-1.83,-1.8311,-1.8327,-1.8325,-1.833,-1.8331,-1.8332,-1.8332,-1.8303,-1.8331,-1.8331,-1.8331,-1.8331,-1.8331,0,-1.8125,-1.8135,-1.8151,-1.817,-1.8184,-1.8186,-1.8202,-1.8213,-1.8231,-1.8246,-1.8261,-1.8283,-1.8302,-1.8316,-1.8335,-1.8345,-1.8347,-1.835,-1.8349,-1.8351,-1.8333,-1.8328,-1.8348,-1.8348,-1.8348,-1.8348,-1.8348,-1.8348,-1.8138,-1.8158,-1.8164,-1.8191,-1.8201,-1.822,-1.8229,-1.8242,-1.8254,-1.8278,-1.8293,-1.8302,-1.8317,-1.8337,-1.8355,-1.8358,-1.8365,-1.8367,-1.8371,-1.8354,-1.8352,-1.835,-1.8345,-1.8369,-1.8369,-1.8388,-1.8388,-1.8388]},{"header":{"parameterUnit":"m.s-1","parameterCategory":1,"la1":30.2991,"la2":30.254,"lo1":-89.0895,"lo2":-89.0444,"dy":0.0017,"dx":0.0017,"nx":28,"ny":28,"refTime":"2024-05-23T03:00:00:Z","depth":0,"parameterNumber":3,"parameterNumberName":"V-component_of_WINDS"},"data":[0,0,0,0,0,0,0,0,0,0,0,0,0,0,0,0,0,0,0,0,0,0,0,0,0,0,0,0,0,0,0,0,0,0,0,0,0,0,0,0,0,0,0,0,0,0,0,0,0,0,0,0,0,0,0,0,0,0,3.5461,3.5461,0,3.5424,3.5423,3.5423,3.5357,3.5356,3.5354,3.5353,3.5315,3.5315,3.5315,0,0,0,0,0,0,0,0,0,0,0,0,0,3.5478,3.5478,3.5461,3.5461,3.5461,3.5424,3.5423,3.5423,3.5357,3.5355,3.5354,3.5353,3.5315,3.5315,3.5315,0,0,0,0,0,0,0,0,0,0,0,0,0,3.5459,3.5478,3.5462,3.5423,3.542,3.5424,3.5423,3.5422,3.5357,3.5355,3.5354,3.5352,3.5315,3.5315,3.5315,3.5353,0,0,3.5316,3.5316,0,0,0,0,0,0,0,0,3.546,3.5458,3.5429,3.5426,3.5422,3.5393,3.5415,3.5399,3.5358,3.5381,3.5353,3.5351,3.5342,3.534,3.5337,3.5352,3.535,3.5316,3.5316,3.5316,3.5316,0,0,0,0,0,0,0,3.5461,3.5459,3.5446,3.5429,3.5424,3.5408,3.5404,3.5411,3.5373,3.5379,3.5374,3.537,3.534,3.5337,3.5336,3.5349,3.5316,3.5316,3.5316,3.5316,3.5394,3.5396,0,0,0,0,0,0,3.5468,3.5461,3.5448,3.5445,3.5437,3.541,3.5404,3.5404,3.5372,3.5366,3.5372,3.5367,3.5338,3.5336,3.5334,3.5377,3.5316,3.5316,3.5316,3.5392,3.5394,3.5396,0,0,0,0,0,0,3.5469,3.5467,3.5449,3.5452,3.5448,3.5411,3.5412,3.5404,3.5401,3.5367,3.536,3.5376,3.5336,3.5334,3.5349,3.5375,3.5316,3.5316,3.5389,3.5392,3.5395,3.5463,0,0,0,0,0,0,3.5469,3.5468,3.5482,3.5453,3.5448,3.5465,3.5413,3.5405,3.5402,3.5396,3.5369,3.5363,3.5334,3.5349,3.5349,3.5374,3.5316,3.5387,3.5391,3.5394,3.5458,3.5468,3.5476,0,0,0,0,0,3.547,3.5503,3.5483,3.5482,3.5465,3.5466,3.5464,3.543,3.5404,3.5418,3.5396,3.5364,3.5372,3.5351,3.5351,3.5376,3.5385,3.539,3.5394,3.5454,3.5466,3.5476,0,0,0,0,0,0,3.5536,3.5498,3.5476,3.55,3.5487,3.5455,3.5472,3.5444,3.5438,3.5432,3.5391,3.5386,3.5406,3.5393,3.537,3.5411,3.5374,3.5378,3.5419,3.543,3.5439,3.5442,3.5317,0,0,0,0,0,3.5554,3.5558,3.5524,3.5549,3.5543,3.5509,3.5508,3.5484,3.5468,3.5463,3.5442,3.5428,3.5428,3.5428,3.5426,3.5456,3.5449,3.5473,3.5482,3.5489,3.5494,3.5508,3.5519,3.5411,3.5411,3.541,0,0,3.559,3.5569,3.5575,3.5562,3.5549,3.5554,3.5505,3.5513,3.5516,3.5464,3.5477,3.5461,3.5444,3.5467,3.5476,3.5456,3.5522,3.5495,3.5501,3.5501,3.5514,3.5524,3.5533,3.5414,3.5413,3.5413,0,0,3.5658,3.5643,3.5662,3.565,3.5631,3.5607,3.5612,3.5585,3.5572,3.5585,3.5546,3.555,3.555,3.5539,3.5533,3.5598,3.5568,3.5598,3.5645,3.566,3.5668,3.5675,3.5698,3.5707,3.5603,3.5603,3.5603,0,3.5705,3.5711,3.5675,3.5685,3.5681,3.5634,3.5652,3.5642,3.5624,3.5622,3.56,3.5599,3.5584,3.5604,3.562,3.5617,3.5621,3.5601,3.567,3.5677,3.5683,3.5704,3.5713,3.5607,3.5606,3.5606,3.5606,0,3.577,3.5775,3.5793,3.5776,3.5773,3.5788,3.5754,3.5756,3.5731,3.5711,3.5724,3.5705,3.5697,3.57,3.5677,3.5717,3.5705,3.5677,3.5638,3.5698,3.5717,3.5725,3.5612,3.5611,3.561,3.5609,0,0,3.5878,3.5841,3.5848,3.584,3.5816,3.5819,3.5832,3.5824,3.5827,3.5816,3.5825,3.5827,3.5801,3.5795,3.5769,3.5783,3.5835,3.5753,3.5752,3.5769,3.5878,3.5899,3.5909,3.5815,3.5817,3.5818,3.5879,0,3.5941,3.596,3.5928,3.5954,3.5959,3.5914,3.5925,3.5912,3.5893,3.5894,3.5873,3.5875,3.5841,3.5837,3.5848,3.5826,3.5856,3.5822,3.5824,3.5824,3.5829,3.5919,3.5941,3.6,3.5886,3.5888,3.5889,0,3.6016,3.6009,3.6036,3.601,3.6011,3.6021,3.6012,3.6014,3.5998,3.5983,3.5977,3.5947,3.5958,3.5921,3.5935,3.5912,3.5911,3.5901,3.5902,3.59,3.586,3.592,3.6018,3.6026,3.59,3.5899,3.5898,0,3.6092,3.6089,3.6105,3.6099,3.607,3.6078,3.6066,3.6048,3.6046,3.6038,3.6037,3.6031,3.6027,3.6023,3.5993,3.5968,3.601,3.5971,3.5999,3.5999,3.6009,3.6009,3.6108,3.6009,3.6009,3.6009,3.6009,0,3.6165,3.6184,3.6138,3.6148,3.6167,3.6131,3.6151,3.6134,3.6119,3.6125,3.6086,3.6093,3.6052,3.6054,3.6031,3.6046,3.6045,3.6033,3.6027,3.6036,3.6038,3.6035,3.603,3.6011,3.6011,3.601,3.601,0,3.6253,3.6224,3.6238,3.6209,3.6202,3.6218,3.6193,3.6201,3.618,3.6188,3.6187,3.6154,3.6155,3.6124,3.6118,3.6102,3.6128,3.6114,3.6133,3.6129,3.6158,3.6156,3.6259,3.627,3.6165,3.6166,3.6167,0,3.6302,3.6315,3.6287,3.6288,3.6278,3.6281,3.6278,3.6243,3.6242,3.6225,3.6235,3.6232,3.6228,3.6231,3.6206,3.6202,3.6187,3.6224,3.6186,3.6196,3.6187,3.6187,3.6188,3.6231,3.6233,3.6234,3.6235,0,3.6391,3.6375,3.6373,3.6367,3.6365,3.6358,3.6348,3.6351,3.6312,3.6314,3.6313,3.631,3.6304,3.6302,3.6293,3.6281,3.6252,3.6247,3.6253,3.6263,3.6273,3.6268,3.6154,3.6244,3.6243,3.6243,3.6242,3.6242,3.646,3.6469,3.6452,3.6451,3.644,3.6432,3.6438,3.6418,3.6417,3.6409,3.6388,3.6392,3.6376,3.636,3.6351,3.6353,3.6335,3.6344,3.6346,3.6349,3.6354,3.6273,3.6351,3.6351,3.6351,3.635,3.635,0,3.6547,3.6533,3.6533,3.6521,3.652,3.6492,3.6481,3.6482,3.6485,3.6473,3.6469,3.647,3.6467,3.6443,3.6438,3.6444,3.6431,3.6444,3.6443,3.6441,3.6371,3.6366,3.6455,3.6455,3.6455,3.6455,3.6455,3.6455,3.6592,3.6606,3.6589,3.6598,3.6584,3.6587,3.6583,3.6575,3.6565,3.6567,3.6565,3.6549,3.6532,3.6525,3.6522,3.6515,3.6514,3.6533,3.6521,3.6456,3.6446,3.6436,3.6431,3.6533,3.6533,3.6591,3.6591,3.6592]}]]